SCP
0 0 0 0 0 0 0 0 0 0 0 0 0 0 0 0 1 1 0 0 0 0 0 1 1 1 1 1 1 1 0 0 0 0 0 0 0 0 0 0 0 0 0
0 0 0 0 0 0 0 0 0 0 0 0 0 0 0 0 0 0 0 0 1 0 1 0 0 1 1 1 1 1 1 0 1 0 0 0 0 0 0 0 0 0 0
0 0 0 0 0 0 0 0 0 0 0 0 0 0 0 0 0 0 0 0 0 0 0 0 0 0 1 1 1 1 1 1 1 0 1 0 0 0 0 0 0 0 0
0 0 0 0 0 0 0 0 0 0 0 0 0 0 0 0 0 0 0 0 0 0 0 0 0 0 1 1 1 1 1 1 1 1 1 1 1 1 0 0 0 0 0
0 0 0 0 0 0 0 0 0 0 0 0 0 0 0 0 0 0 0 0 0 0 0 0 0 0 0 0 1 1 1 1 1 1 2 1 1 1 0 0 0 0 1
0 0 0 0 0 0 0 0 0 0 0 0 0 0 0 0 0 0 0 0 0 0 0 0 0 0 0 0 0 1 1 1 1 1 1 1 1 1 1 0 0 0 1
0 0 0 0 0 0 0 0 0 0 0 0 0 0 0 0 0 0 0 0 0 0 0 0 0 0 0 0 0 0 0 0 1 1 1 1 1 2 2 1 0 1 0
0 0 0 0 0 0 0 0 0 0 0 0 0 0 0 0 0 0 0 0 0 0 0 0 0 0 0 0 0 0 0 0 0 1 1 1 1 1 2 2 0 0 0
0 0 0 0 0 0 0 0 0 0 0 0 0 0 0 0 0 0 0 0 0 0 0 0 0 0 0 0 0 0 0 0 0 0 1 1 2 2 0 0 0 0 0
0 0 0 0 0 0 0 0 0 0 0 0 0 0 0 0 0 0 0 0 0 0 0 0 0 0 0 0 0 0 0 0 0 0 0 1 1 1 1 0 0 0 0
0 0 0 0 0 0 0 0 0 0 0 0 0 0 0 0 0 0 0 0 0 0 0 0 0 0 0 0 0 0 0 0 0 0 0 0 1 0 0 0 0 0 0
0 0 0 0 0 0 0 0 0 0 0 0 0 0 0 0 0 0 0 0 0 0 0 0 0 0 0 0 0 0 0 0 0 0 0 0 0 0 0 0 0 0 0
0 0 0 0 0 0 0 0 0 0 0 0 0 0 0 0 0 0 0 0 0 0 0 0 0 0 0 0 0 0 0 0 0 0 0 0 0 0 0 0 0 0 0
0 0 0 0 0 0 0 0 0 -0 0 0 0 0 0 0 0 0 0 0 0 0 0 0 0 0 0 0 0 0 0 0 0 0 0 0 0 0 0 0 0 0 0
0 0 0 0 0 0 0 0 0 0 0 0 0 0 0 0 0 0 0 0 0 0 0 0 0 0 0 0 0 0 0 0 0 0 0 0 -0 -0 0 0 0 0 0
0 0 0 0 0 0 0 0 0 0 0 0 0 0 0 0 0 0 0 0 0 0 0 0 0 0 0 0 0 0 0 0 0 0 0 -0 -0 -0 0 0 0 0 0
0 0 0 0 0 0 0 0 0 0 0 0 0 0 0 0 0 0 0 0 0 0 0 0 0 0 0 0 0 0 0 0 0 0 -0 0 0 0 0 0 -0 -0 -0
0 0 0 0 0 0 0 0 0 0 0 0 0 0 0 0 0 0 0 0 0 0 0 0 0 0 0 0 0 0 0 0 0 0 0 0 0 0 0 0 0 0 0
0 -0 -0 0 0 0 0 0 0 0 0 0 0 0 0 0 0 0 0 0 0 0 0 0 0 0 0 0 0 0 0 0 0 0 0 -0 0 0 0 0 -0 0 0
0 0 0 -0 -0 -0 0 0 0 0 0 0 0 0 0 0 0 0 0 0 0 0 0 0 0 0 0 0 0 0 0 0 0 0 0 -0 0 0 0 0 0 0 0
0 0 -0 -0 -0 -0 0 -0 0 0 0 0 0 0 0 0 0 0 0 0 0 0 0 0 0 0 0 0 0 0 0 0 0 0 -0 -0 -0 0 0 0 -0 0 0
-0 -0 -0 -0 -0 -0 -0 0 0 0 0 0 0 0 0 0 0 0 0 0 0 0 0 0 0 0 0 0 0 0 0 0 0 0 0 0 0 0 0 -0 0 0 0
-0 -0 -0 -0 -0 -0 -0 -0 0 0 0 0 0 0 0 0 0 0 0 0 0 0 0 0 0 0 0 0 0 0 0 0 0 0 -0 -0 0 0 0 0 0 0 0
-0 -0 -0 -0 0 -0 -0 -0 0 0 0 0 0 0 0 0 0 0 0 0 0 0 0 -0 0 0 0 0 0 0 0 0 0 0 -0 0 -0 0 0 0 0 0 0
-0 -0 -0 0 0 0 -0 -0 0 0 0 0 0 0 0 0 0 0 0 0 0 0 0 -0 -0 0 0 0 0 0 0 0 0 0 0 0 0 0 0 0 0 0 0
-0 -0 0 0 0 -0 -0 -0 0 0 0 0 0 0 0 0 0 0 0 0 0 0 -0 -0 -0 0 0 0 0 0 0 0 0 0 0 0 0 0 0 0 0 0 0
Wind_Speed_500mb
84 83 54 41 34 31 32 29 33 33 26 28 32 29 26 21 16 16 18 22 27 31 35 37 39 43 49 55 58 64 67 68 67 72 78 82 82 78 81 85 83 78 78
61 46 36 36 39 43 45 45 42 40 36 33 31 26 19 12 10 11 16 22 26 30 34 37 42 45 47 48 51 57 65 72 67 68 69 71 70 75 78 76 80 85 82
40 38 41 44 52 53 51 45 39 36 33 25 18 12 10 13 16 21 25 31 34 38 41 45 50 52 54 58 57 59 64 70 70 69 62 36 45 59 57 58 62 62 75
32 39 43 43 46 49 47 41 34 26 19 11 7 8 11 15 21 24 28 31 37 41 45 46 49 45 45 52 58 58 60 61 70 66 67 74 80 58 57 63 61 60 60
48 50 52 50 48 42 35 29 22 15 9 5 9 16 20 25 28 32 36 38 39 42 43 47 47 49 52 53 51 51 53 58 67 69 69 73 75 81 85 70 77 64 67
47 47 45 42 36 30 22 16 14 19 16 9 13 17 20 24 31 34 40 42 45 47 52 54 54 53 54 54 53 50 53 59 63 70 72 75 62 62 70 78 79 81 70
51 45 38 33 29 26 20 20 21 19 17 22 27 31 33 37 42 47 53 58 62 62 61 58 57 58 62 62 58 57 53 57 66 67 72 76 83 77 83 80 71 67 67
42 36 30 26 24 24 26 26 25 26 27 29 31 35 39 42 46 51 58 64 68 71 72 71 69 67 64 63 65 63 61 60 65 69 69 74 76 81 80 76 61 33 21
27 22 20 22 25 24 21 21 23 23 25 30 34 35 39 44 49 54 59 64 69 73 76 75 77 76 74 71 70 67 64 62 62 66 71 73 78 76 82 81 79 75 56
14 19 19 21 21 19 16 12 13 19 27 34 41 48 56 64 72 78 82 86 89 88 87 85 84 82 79 76 73 71 64 61 63 67 69 73 73 80 83 84 84 92 97
21 21 22 20 14 6 5 13 23 33 42 50 58 67 75 82 87 90 90 88 85 84 86 89 91 89 88 81 74 72 66 65 64 66 70 73 74 76 83 90 92 95 102
30 23 14 5 5 12 21 29 38 47 56 64 72 79 84 84 84 80 75 71 71 68 67 67 71 76 83 87 80 75 70 69 68 67 74 80 70 73 78 88 87 96 110
16 10 2 11 21 29 37 46 53 60 68 77 83 86 84 80 74 64 58 57 62 66 71 73 72 74 82 76 83 77 72 69 70 67 75 78 76 75 78 85 90 93 95
3 9 15 23 33 42 51 58 65 71 78 82 82 79 71 67 62 57 56 61 63 66 67 66 68 67 68 67 70 77 75 71 70 68 71 75 77 75 68 74 80 79 85
5 15 27 35 43 52 60 67 73 80 80 77 73 66 63 62 59 58 55 50 49 54 61 66 69 68 65 56 57 58 66 68 68 67 70 70 77 69 68 68 69 63 69
17 27 34 42 53 63 70 74 79 78 73 67 60 57 59 58 55 51 43 46 55 64 70 66 71 71 69 67 64 66 73 61 59 62 63 62 67 61 65 70 77 82 79
25 34 44 54 62 67 72 75 73 69 67 61 55 55 55 57 53 46 52 60 72 74 70 70 73 70 72 67 59 49 53 64 52 52 54 60 54 35 37 44 60 65 67
33 43 52 60 64 68 68 64 65 63 58 53 53 54 54 54 49 53 63 71 76 81 78 78 73 70 71 70 63 58 51 51 50 43 50 61 49 33 24 32 46 65 42
42 51 56 60 66 63 60 62 60 54 50 48 53 55 48 45 51 62 71 75 80 78 77 79 82 81 77 69 63 55 54 47 42 38 47 38 53 46 45 44 54 55 74
46 53 56 59 58 56 56 57 55 52 47 47 54 40 42 49 55 65 69 74 70 79 81 80 76 75 74 68 58 47 41 43 33 38 43 30 31 37 35 28 32 38 41
45 48 52 54 55 54 52 53 53 50 46 49 42 39 43 50 61 66 64 61 71 75 74 69 61 61 64 66 47 42 39 31 27 32 24 21 16 31 27 45 53 51 49
44 48 53 55 55 52 49 51 51 47 43 46 36 37 44 53 63 54 61 63 69 70 65 51 39 51 54 41 34 35 28 32 32 29 20 8 21 38 23 37 48 44 43
47 47 50 55 55 51 46 50 47 43 47 42 36 44 48 54 59 53 58 63 65 61 55 48 51 51 38 31 30 29 35 42 18 30 32 39 30 26 37 40 44 42 36
48 50 53 56 57 53 49 44 43 44 46 44 40 46 45 56 60 50 52 56 60 56 49 45 42 36 27 26 56 25 47 32 25 37 58 73 35 37 43 41 38 37 33
50 53 54 56 57 54 50 44 42 43 45 45 44 45 45 56 55 49 49 54 56 48 45 35 33 28 47 48 55 35 45 41 40 66 77 71 49 40 37 38 43 40 36
49 57 55 56 55 53 51 50 45 42 43 45 44 45 46 56 61 54 45 44 46 43 37 20 24 31 44 45 38 37 40 50 50 75 68 50 60 48 39 41 41 35 31
Wind_Direction_500mb
228 236 224 227 215 196 188 185 188 197 200 200 213 226 237 235 251 265 264 272 284 289 287 288 286 284 280 281 283 287 288 287 290 291 291 288 280 277 273 272 268 266 262
216 211 201 201 202 201 196 191 192 192 195 199 196 195 203 220 254 278 287 289 289 289 289 290 291 291 290 288 285 287 289 289 286 282 288 289 290 280 279 275 272 269 266
188 193 190 190 190 192 191 191 187 184 179 176 175 197 244 270 281 284 286 290 293 294 293 291 290 291 291 291 289 287 284 285 287 283 271 268 267 284 285 281 283 280 273
189 188 185 179 178 173 173 177 173 169 166 171 215 261 286 297 304 304 305 301 300 301 301 300 298 299 302 298 295 292 288 282 280 279 273 268 266 267 285 281 276 274 271
177 163 154 149 148 142 144 145 145 143 120 40 339 336 329 322 315 306 305 305 303 302 300 299 295 294 298 301 300 301 300 292 281 276 274 274 272 268 258 266 272 270 271
147 142 142 146 146 145 142 144 161 181 195 220 250 258 266 277 284 287 286 285 283 284 287 290 292 290 289 292 294 302 303 299 293 281 274 269 260 264 262 254 261 266 268
147 149 152 157 163 166 176 195 206 218 231 248 256 262 267 272 274 274 274 274 276 274 273 270 269 274 281 285 287 290 298 306 299 289 279 271 265 264 262 259 260 265 273
155 160 169 177 183 192 208 221 237 249 258 261 266 270 272 275 278 278 277 276 276 274 273 270 266 264 263 268 275 279 285 295 301 291 283 276 266 262 259 255 248 228 209
170 175 188 197 206 218 227 230 235 244 257 267 271 278 284 287 288 287 285 283 280 278 275 274 271 266 263 262 265 269 274 283 292 297 287 275 267 259 257 253 246 235 235
173 172 169 170 175 176 185 207 245 270 279 287 291 291 292 293 292 290 287 284 281 277 274 272 270 270 267 263 260 262 265 273 282 291 293 282 272 263 257 255 255 252 244
149 143 139 138 142 159 263 288 294 298 300 301 300 299 298 298 298 297 296 294 291 288 283 280 275 269 265 264 262 259 259 266 275 283 289 289 278 266 255 255 256 251 245
141 134 128 103 329 312 308 305 304 304 304 303 302 303 304 303 302 300 300 299 300 298 295 292 290 284 273 264 260 262 258 261 266 277 284 287 281 262 259 252 246 248 254
136 145 228 321 319 315 312 311 310 308 307 307 308 309 308 306 304 302 301 303 303 301 299 297 294 291 289 280 262 258 262 262 264 272 279 285 288 266 256 253 250 249 253
49 344 331 324 318 317 315 312 310 311 311 312 311 309 310 309 306 303 306 306 304 304 306 307 303 297 294 286 270 257 256 266 269 271 277 282 282 269 263 256 248 250 251
343 329 326 322 317 316 314 314 314 313 313 311 310 312 313 312 307 304 302 304 310 313 314 311 309 304 291 284 276 267 258 260 269 271 279 282 285 265 258 252 253 251 248
332 325 322 320 318 319 317 314 312 313 312 312 311 313 319 318 314 309 308 310 310 309 305 301 301 305 301 285 281 271 263 256 262 275 281 283 281 267 257 244 241 250 250
328 325 323 320 317 315 314 315 314 313 313 313 312 315 316 315 312 308 314 317 316 310 306 303 301 299 300 298 282 275 276 260 267 275 286 275 253 265 255 249 250 251 243
325 321 319 316 315 316 317 314 312 314 313 312 315 316 313 312 310 315 316 314 312 309 302 302 300 299 295 300 282 272 278 255 264 276 280 271 250 246 259 302 256 239 194
324 320 318 317 317 319 317 313 313 315 314 317 315 315 314 314 322 323 316 314 311 311 306 305 301 297 295 293 288 271 275 261 264 271 278 257 253 264 247 304 253 242 214
320 320 322 322 320 321 319 317 317 315 314 315 314 313 317 323 320 315 315 318 316 314 308 299 297 287 289 293 286 265 277 263 263 275 276 261 247 256 288 279 192 167 156
326 329 329 328 328 326 321 316 318 318 314 312 308 317 321 316 315 314 321 313 320 312 309 308 297 289 283 294 280 253 274 255 248 265 259 241 290 280 151 156 176 176 160
342 341 336 334 336 334 325 318 317 318 315 310 310 310 312 318 322 318 323 319 322 322 321 317 301 296 299 294 274 255 247 223 242 252 169 133 186 169 181 173 159 157 156
354 349 342 338 341 337 331 323 322 321 320 314 307 311 317 326 329 318 326 323 323 323 319 319 317 311 312 304 281 273 211 210 217 233 163 142 193 170 142 145 146 141 145
355 351 348 346 341 341 338 329 324 321 319 312 308 311 325 331 335 321 319 319 327 327 318 315 313 314 335 326 336 214 195 194 211 179 154 147 153 144 142 140 130 127 123
358 358 351 346 343 344 343 337 331 325 321 315 309 312 325 327 330 331 330 326 329 328 319 306 316 309 320 328 354 177 187 176 187 164 147 147 157 154 147 136 128 129 126
357 358 356 351 348 350 351 347 340 329 324 316 314 319 322 324 334 339 331 335 336 341 329 306 322 317 327 334 9 177 182 172 167 169 164 165 155 155 142 128 131 130 128
Wind_Speed_850mb
84 83 54 41 34 31 32 29 33 33 26 28 32 29 26 21 16 16 18 22 27 31 35 37 39 43 49 55 58 64 67 68 67 72 78 82 82 78 81 85 83 78 78
61 46 36 36 39 43 45 45 42 40 36 33 31 26 19 12 10 11 16 22 26 30 34 37 42 45 47 48 51 57 65 72 67 68 69 71 70 75 78 76 80 85 82
40 38 41 44 52 53 51 45 39 36 33 25 18 12 10 13 16 21 25 31 34 38 41 45 50 52 54 58 57 59 64 70 70 69 62 36 45 59 57 58 62 62 75
32 39 43 43 46 49 47 41 34 26 19 11 7 8 11 15 21 24 28 31 37 41 45 46 49 45 45 52 58 58 60 61 70 66 67 74 80 58 57 63 61 60 60
48 50 52 50 48 42 35 29 22 15 9 5 9 16 20 25 28 32 36 38 39 42 43 47 47 49 52 53 51 51 53 58 67 69 69 73 75 81 85 70 77 64 67
47 47 45 42 36 30 22 16 14 19 16 9 13 17 20 24 31 34 40 42 45 47 52 54 54 53 54 54 53 50 53 59 63 70 72 75 62 62 70 78 79 81 70
51 45 38 33 29 26 20 20 21 19 17 22 27 31 33 37 42 47 53 58 62 62 61 58 57 58 62 62 58 57 53 57 66 67 72 76 83 77 83 80 71 67 67
42 36 30 26 24 24 26 26 25 26 27 29 31 35 39 42 46 51 58 64 68 71 72 71 69 67 64 63 65 63 61 60 65 69 69 74 76 81 80 76 61 33 21
27 22 20 22 25 24 21 21 23 23 25 30 34 35 39 44 49 54 59 64 69 73 76 75 77 76 74 71 70 67 64 62 62 66 71 73 78 76 82 81 79 75 56
14 19 19 21 21 19 16 12 13 19 27 34 41 48 56 64 72 78 82 86 89 88 87 85 84 82 79 76 73 71 64 61 63 67 69 73 73 80 83 84 84 92 97
21 21 22 20 14 6 5 13 23 33 42 50 58 67 75 82 87 90 90 88 85 84 86 89 91 89 88 81 74 72 66 65 64 66 70 73 74 76 83 90 92 95 102
30 23 14 5 5 12 21 29 38 47 56 64 72 79 84 84 84 80 75 71 71 68 67 67 71 76 83 87 80 75 70 69 68 67 74 80 70 73 78 88 87 96 110
16 10 2 11 21 29 37 46 53 60 68 77 83 86 84 80 74 64 58 57 62 66 71 73 72 74 82 76 83 77 72 69 70 67 75 78 76 75 78 85 90 93 95
3 9 15 23 33 42 51 58 65 71 78 82 82 79 71 67 62 57 56 61 63 66 67 66 68 67 68 67 70 77 75 71 70 68 71 75 77 75 68 74 80 79 85
5 15 27 35 43 52 60 67 73 80 80 77 73 66 63 62 59 58 55 50 49 54 61 66 69 68 65 56 57 58 66 68 68 67 70 70 77 69 68 68 69 63 69
17 27 34 42 53 63 70 74 79 78 73 67 60 57 59 58 55 51 43 46 55 64 70 66 71 71 69 67 64 66 73 61 59 62 63 62 67 61 65 70 77 82 79
25 34 44 54 62 67 72 75 73 69 67 61 55 55 55 57 53 46 52 60 72 74 70 70 73 70 72 67 59 49 53 64 52 52 54 60 54 35 37 44 60 65 67
33 43 52 60 64 68 68 64 65 63 58 53 53 54 54 54 49 53 63 71 76 81 78 78 73 70 71 70 63 58 51 51 50 43 50 61 49 33 24 32 46 65 42
42 51 56 60 66 63 60 62 60 54 50 48 53 55 48 45 51 62 71 75 80 78 77 79 82 81 77 69 63 55 54 47 42 38 47 38 53 46 45 44 54 55 74
46 53 56 59 58 56 56 57 55 52 47 47 54 40 42 49 55 65 69 74 70 79 81 80 76 75 74 68 58 47 41 43 33 38 43 30 31 37 35 28 32 38 41
45 48 52 54 55 54 52 53 53 50 46 49 42 39 43 50 61 66 64 61 71 75 74 69 61 61 64 66 47 42 39 31 27 32 24 21 16 31 27 45 53 51 49
44 48 53 55 55 52 49 51 51 47 43 46 36 37 44 53 63 54 61 63 69 70 65 51 39 51 54 41 34 35 28 32 32 29 20 8 21 38 23 37 48 44 43
47 47 50 55 55 51 46 50 47 43 47 42 36 44 48 54 59 53 58 63 65 61 55 48 51 51 38 31 30 29 35 42 18 30 32 39 30 26 37 40 44 42 36
48 50 53 56 57 53 49 44 43 44 46 44 40 46 45 56 60 50 52 56 60 56 49 45 42 36 27 26 56 25 47 32 25 37 58 73 35 37 43 41 38 37 33
50 53 54 56 57 54 50 44 42 43 45 45 44 45 45 56 55 49 49 54 56 48 45 35 33 28 47 48 55 35 45 41 40 66 77 71 49 40 37 38 43 40 36
49 57 55 56 55 53 51 50 45 42 43 45 44 45 46 56 61 54 45 44 46 43 37 20 24 31 44 45 38 37 40 50 50 75 68 50 60 48 39 41 41 35 31
Wind_Direction_850mb
228 236 224 227 215 196 188 185 188 197 200 200 213 226 237 235 251 265 264 272 284 289 287 288 286 284 280 281 283 287 288 287 290 291 291 288 280 277 273 272 268 266 262
216 211 201 201 202 201 196 191 192 192 195 199 196 195 203 220 254 278 287 289 289 289 289 290 291 291 290 288 285 287 289 289 286 282 288 289 290 280 279 275 272 269 266
188 193 190 190 190 192 191 191 187 184 179 176 175 197 244 270 281 284 286 290 293 294 293 291 290 291 291 291 289 287 284 285 287 283 271 268 267 284 285 281 283 280 273
189 188 185 179 178 173 173 177 173 169 166 171 215 261 286 297 304 304 305 301 300 301 301 300 298 299 302 298 295 292 288 282 280 279 273 268 266 267 285 281 276 274 271
177 163 154 149 148 142 144 145 145 143 120 40 339 336 329 322 315 306 305 305 303 302 300 299 295 294 298 301 300 301 300 292 281 276 274 274 272 268 258 266 272 270 271
147 142 142 146 146 145 142 144 161 181 195 220 250 258 266 277 284 287 286 285 283 284 287 290 292 290 289 292 294 302 303 299 293 281 274 269 260 264 262 254 261 266 268
147 149 152 157 163 166 176 195 206 218 231 248 256 262 267 272 274 274 274 274 276 274 273 270 269 274 281 285 287 290 298 306 299 289 279 271 265 264 262 259 260 265 273
155 160 169 177 183 192 208 221 237 249 258 261 266 270 272 275 278 278 277 276 276 274 273 270 266 264 263 268 275 279 285 295 301 291 283 276 266 262 259 255 248 228 209
170 175 188 197 206 218 227 230 235 244 257 267 271 278 284 287 288 287 285 283 280 278 275 274 271 266 263 262 265 269 274 283 292 297 287 275 267 259 257 253 246 235 235
173 172 169 170 175 176 185 207 245 270 279 287 291 291 292 293 292 290 287 284 281 277 274 272 270 270 267 263 260 262 265 273 282 291 293 282 272 263 257 255 255 252 244
149 143 139 138 142 159 263 288 294 298 300 301 300 299 298 298 298 297 296 294 291 288 283 280 275 269 265 264 262 259 259 266 275 283 289 289 278 266 255 255 256 251 245
141 134 128 103 329 312 308 305 304 304 304 303 302 303 304 303 302 300 300 299 300 298 295 292 290 284 273 264 260 262 258 261 266 277 284 287 281 262 259 252 246 248 254
136 145 228 321 319 315 312 311 310 308 307 307 308 309 308 306 304 302 301 303 303 301 299 297 294 291 289 280 262 258 262 262 264 272 279 285 288 266 256 253 250 249 253
49 344 331 324 318 317 315 312 310 311 311 312 311 309 310 309 306 303 306 306 304 304 306 307 303 297 294 286 270 257 256 266 269 271 277 282 282 269 263 256 248 250 251
343 329 326 322 317 316 314 314 314 313 313 311 310 312 313 312 307 304 302 304 310 313 314 311 309 304 291 284 276 267 258 260 269 271 279 282 285 265 258 252 253 251 248
332 325 322 320 318 319 317 314 312 313 312 312 311 313 319 318 314 309 308 310 310 309 305 301 301 305 301 285 281 271 263 256 262 275 281 283 281 267 257 244 241 250 250
328 325 323 320 317 315 314 315 314 313 313 313 312 315 316 315 312 308 314 317 316 310 306 303 301 299 300 298 282 275 276 260 267 275 286 275 253 265 255 249 250 251 243
325 321 319 316 315 316 317 314 312 314 313 312 315 316 313 312 310 315 316 314 312 309 302 302 300 299 295 300 282 272 278 255 264 276 280 271 250 246 259 302 256 239 194
324 320 318 317 317 319 317 313 313 315 314 317 315 315 314 314 322 323 316 314 311 311 306 305 301 297 295 293 288 271 275 261 264 271 278 257 253 264 247 304 253 242 214
320 320 322 322 320 321 319 317 317 315 314 315 314 313 317 323 320 315 315 318 316 314 308 299 297 287 289 293 286 265 277 263 263 275 276 261 247 256 288 279 192 167 156
326 329 329 328 328 326 321 316 318 318 314 312 308 317 321 316 315 314 321 313 320 312 309 308 297 289 283 294 280 253 274 255 248 265 259 241 290 280 151 156 176 176 160
342 341 336 334 336 334 325 318 317 318 315 310 310 310 312 318 322 318 323 319 322 322 321 317 301 296 299 294 274 255 247 223 242 252 169 133 186 169 181 173 159 157 156
354 349 342 338 341 337 331 323 322 321 320 314 307 311 317 326 329 318 326 323 323 323 319 319 317 311 312 304 281 273 211 210 217 233 163 142 193 170 142 145 146 141 145
355 351 348 346 341 341 338 329 324 321 319 312 308 311 325 331 335 321 319 319 327 327 318 315 313 314 335 326 336 214 195 194 211 179 154 147 153 144 142 140 130 127 123
358 358 351 346 343 344 343 337 331 325 321 315 309 312 325 327 330 331 330 326 329 328 319 306 316 309 320 328 354 177 187 176 187 164 147 147 157 154 147 136 128 129 126
357 358 356 351 348 350 351 347 340 329 324 316 314 319 322 324 334 339 331 335 336 341 329 306 322 317 327 334 9 177 182 172 167 169 164 165 155 155 142 128 131 130 128